User: anonymous   Login
Location: Unspecified
(0.0000°N, 0.0000°E)
Time: 05:47:47
(UTC+00:00)
Language:

deb r/b Ablestar - Orbit

View from above orbital plane
View from above orbital plane
View from above satellite
View from above satellite

Ground track
Ground track

The orbit data is extracted from the following two-line orbital elements,

1 00335U 61015DM  16178.04182418  .00000006  00000-0  43832-4 0  9995
2 00335  66.8432  65.4122 0044417 332.0498  27.8209 14.16530682811049
Epoch (UTC): 26 June 2016 01:00:13
Eccentricity: 0.0044417
inclination: 66.8432°
perigee height: 805 km
apogee height: 869 km
right ascension of ascending node: 65.4122°
argument of perigee: 332.0498°
revolutions per day: 14.16530682
mean anomaly at epoch: 27.8209°
orbit number at epoch: 81104

The dashed part of the orbit path shows where the satellite is in the earth's shadow,  

DLR